Weather in Novorossiyskoye

Russia / Novosibirsk Oblast     54°20′42″N   78°17′05″E
temp.,
°C
wind,
m/s
gust,
m/s
humid.,
%
clouds,
%
prec.,
mm/h
press.,
hPa
HPBL,
m
18 may, tue
tue1801:00+21sw5115519 0.0 1010248
04:00+19wsw513505 0.0 1008204
07:00+19wnw614515 0.0 1008330
10:00+21nw695098 0.2 1009554
13:00+23nw674699 0.4 1008878
16:00+26nnw6936100 0.0 10072198
19:00+24nnw464187 0.0 1005800
22:00+19nnw81458100 0.1 1007429
19 may, wed
wed1901:00+15nw478170 0.1 1006178
04:00+13nne6989100 0.0 1006517
07:00+12nne7118097 0.0 1009735
10:00+12ne81065100 0.0 10111015
13:00+14nne7853100 0.0 10111640
16:00+15nne783795 0.0 10122362
19:00+14nne8935100 0.0 10132230
22:00+10nne6104080 0.0 1015430
20 may, thu
thu2001:00+8n494885 0.0 1016241
04:00+6n5105266 0.0 1016330
07:00+5n511525 0.0 1018494
10:00+7n810365 0.0 10201823
13:00+9n793057 0.0 10202363
16:00+11n792990 0.0 10202553
19:00+11n6831100 0.0 10222379
22:00+7nnw3343100 0.0 102340
21 may, fri
fri2101:00+6wnw114774 0.0 102410
04:00+5sw224883 0.0 102412
07:00+5sw2448100 0.0 1025110
10:00+11ssw453558 0.0 1025992
13:00+14ssw552946 0.0 10251624
16:00+16sw562896 0.0 10241798
19:00+15w6645100 0.0 10241223
22:00+13sw3656100 0.0 1024177
22 may, sat
sat2201:00+12sw4960100 0.0 1023204
04:00+12sw6125739 0.0 1022309
07:00+11wsw6146217 0.0 1022334
10:00+18w79505 0.0 1020546
13:00+25wnw6839100 0.0 10201038
16:00+28nnw673024 0.0 10191643
19:00+28nw57345 0.0 10191846
22:00+22nw33481 0.0 102031